Location: Bednik
(45.3500°N, 16.3833°E)
Time: 06:29:07
(UTC+00:00)

Meteor 1-14 Rocket - Pass Details

Date: 08 August 2020
Orbit: 834 x 919 km, 81.3° (Epoch: 23 September)

Event Time Altitude Azimuth Distance (km) Brightness Sun altitude
Exits shadow 20:46:54 43° 166° (SSE) 1,241 4.6 -21.8°
Maximum altitude 20:48:51 70° 97° (E) 952 4.2 -22.0°
Drops below altitude 10° 20:54:46 10° 15° (NNE) 2,605 7.3 -22.6°
Sets 20:57:16 0° 13° (NNE) 3,559 8.1 -22.8°
